Regional Weather Roundup
Issued by NWS

Home | Current Version | Previous Version | Text Only | Print | Product List | Glossary On
Versions: 1 2 3 4 5 6 7 8 9 10 11 12 13 14 15 16 17 18 19 20 21 22 23 24 25 26 27 28
000
ASUS44 KLIX 252013
RWRLA
LOUISIANA WEATHER ROUNDUP
NATIONAL WEATHER SERVICE NEW ORLEANS LA
300 PM CDT THU MAY 25 2017

NOTE: "FAIR" INDICATES FEW OR NO CLOUDS BELOW 12,000 FEET WITH NO
      SIGNIFICANT WEATHER AND/OR OBSTRUCTIONS TO VISIBILITY.
      SKY/WX - SKY CONDITION AND SIGNIFICANT WEATHER.
      TMP - AIR TEMPERATURE.    DP   - DEWPOINT TEMPERATURE.
      RH  - RELATIVE HUMIDITY.  PRES - PRESSURE.
      HX  - HEAT INDEX.         WCI  - WIND CHILL INDEX.

*  THESE STATIONS ARE NOT NWS OR FAA STATIONS AND ARE NOT UNDER
   NWS QUALITY CONTROL.

LAZ040-048-061>063-065-066-069-252100-
SOUTHEAST LOUISIANA

CITY           SKY/WX    TMP DP  RH WIND       PRES   REMARKS
N.O. INTL ARPT MOSUNNY   82  55  39 NW8       29.87F
N.O. LAKEFRONT SUNNY     80  57  45 N8        29.88F
N.O. DOWNTOWN*   N/A     83  55  38 VRB5        N/A
RESERVE*       NOT AVBL
SLIDELL        SUNNY     79  54  41 SW9       29.87F
BATON ROUGE    SUNNY     83  58  42 SW8       29.85F
BOOTHVILLE     SUNNY     79  55  43 SW12      29.90F
BELLE CHASSE   SUNNY     81  58  45 SW10      29.87F
BOGALUSA*      FAIR      82  52  35 W6        29.88F
GALLIANO*      CLEAR     81  53  38 W8        29.88F
NEW ROADS*     FAIR      82  62  50 SW8       29.85F
GONZALES*      FAIR      82  58  44 S8        29.86F
HAMMOND*       SUNNY     82  46  28 W5        29.87F
HOUMA*         SUNNY     82  55  39 W8        29.88F
PORT FOURCHON* CLEAR     79  54  41 VRB6      29.89F

$$

LAZ041-044-053-054-252100-
SOUTHWEST LOUISIANA

CITY           SKY/WX    TMP DP  RH WIND       PRES   REMARKS
LAKE CHARLES   SUNNY     82  64  54 SW12G20   29.84F
LAFAYETTE      MOSUNNY   82  64  54 SW13      29.85F
PATTERSON      PTSUNNY   80  65  59 S6        29.88F
SALT POINT       N/A     81  65  58 VRB5      29.87F
NEW IBERIA     MOSUNNY   84  63  49 SW13      29.86F
CHENAULT AIRPK MOSUNNY   82  63  51 SW14      29.84F

$$

LAZ027-028-252100-
CENTRAL LOUISIANA

CITY           SKY/WX    TMP DP  RH WIND       PRES   REMARKS
FORT POLK      MOSUNNY   84  63  48 S14G20    29.80F
ALEXANDRIA INT MOSUNNY   84  64  50 S13       29.79F
ALEXANDRIA     SUNNY     84  64  50 SW8G17    29.81F

$$

LAZ001-002-252100-
NORTHWEST LOUISIANA

CITY           SKY/WX    TMP DP  RH WIND       PRES   REMARKS
SHREVEPORT     SUNNY     86  61  42 S13G21    29.75F
BARKSDALE AFB  SUNNY     85  61  43 S13G22    29.76F
DTN SHREVEPORT SUNNY     86  61  42 S15       29.76F

$$

LAZ014-016-252100-
NORTHEAST LOUISIANA

CITY           SKY/WX    TMP DP  RH WIND       PRES   REMARKS
MONROE         SUNNY     81  57  43 S9        29.81F
TALLULAH       SUNNY     76  56  49 S10       29.84F

$$





USA.gov is the U.S. government's official web portal to all federal, state and local government web resources and services.